Content
SEND FEEDBACK

Daily
Averages
Monthly
Summary
United Kingdom

SLOUGH, ENGLAND


Home > Europe > United Kingdom > England
Elevation: 79 feet     Latitude: 51 29N     Longitude: 000 27W

WEATHER
 
SELECT A DAY
Number of Records: 354,284;   Date Range: 7/1/96 - 12/18/14
 
SHARE

PRINT THIS DATA

[ ← Previous Day ]
WEATHER ALMANAC - JANUARY 20, 2014
[ Next Day → ]
[ °C ]   °F
Weather ElementAverageHighLow
Temperature40.6 °F50 °F (2:50 pm)33 °F (4:00 am)
Dewpoint36.9 °F41 °F (12:20 pm)32 °F (2:20 am)
Humidity85.5 %100 % (2:50 am)60 % (3:00 pm)
Barometer29.76 in29.89 in (9:20 pm)29.59 in (12:20 am)
Wind Speed1.9 mph4.6 mph (1:20 pm)
Weather ElementAverage
Visibility6.5 mi
Wind DirectionENE (83 °)

Weather ElementTotal
Precipitation---
Heating Degree Days23.5 (Base 65)
Averaged from 70 records on January 20, 2014
WEATHER CONDITIONS BREAKOUT
WIND DIRECTION BREAKOUT
WEATHER BY HOUR - JANUARY 20, 2014
[ °C ]   °F
Local TimeTemperatureDewpointHumidityBarometerVisibilityWind DirectionWind SpeedGust SpeedPrecipitationEventsConditions
12:20 AM35.6 °F33.8 °F93 %29.59 inCalmClear
12:50 AM35.6 °F33.8 °F93 %29.59 in6.2 miCalmPartly Cloudy
1:00 AM37.0 °F35.0 °F88 %29.62 in8.0 miESE (110°)2.3 mph
1:20 AM37.4 °F35.6 °F93 %29.62 in6.2 miCalm
1:50 AM35.6 °F33.8 °F93 %29.62 in4.3 miCalm
2:00 AM36.0 °F34.0 °F89 %29.63 in9.0 miWNW (300°)1.2 mph
2:20 AM33.8 °F32.0 °F93 %29.62 in1.5 miCalmHaze
2:50 AM33.8 °F33.8 °F100 %29.62 in5.6 miCalm
3:00 AM35.0 °F33.0 °F89 %29.64 in6.0 miNE (40°)1.2 mph
3:20 AM33.8 °F32.0 °F93 %29.65 in5.6 miCalm
3:50 AM33.8 °F32.0 °F93 %29.65 in5.6 miVariable2.3 mph
4:00 AM33.0 °F32.0 °F93 %29.65 in6.0 miNE (40°)1.2 mphMist
4:20 AM33.8 °F32.0 °F93 %29.65 in5.6 miCalm
5:00 AM34.0 °F33.0 °F93 %29.67 in7.0 miNE (40°)1.2 mph
5:20 AM33.8 °F32.0 °F93 %29.65 in6.2 miCalm
5:50 AM33.8 °F32.0 °F93 %29.68 in6.2 miCalmPartly Cloudy
6:00 AM35.0 °F34.0 °F92 %29.68 in7.0 miENE (60°)2.3 mph
6:20 AM35.6 °F33.8 °F93 %29.68 in6.2 miVariable2.3 mphPartly Cloudy
6:50 AM35.6 °F33.8 °F93 %29.68 in5.6 miCalmPartly Cloudy
7:00 AM35.0 °F33.0 °F92 %29.70 in6.0 miNNE (30°)2.3 mphScattered Clouds
7:20 AM33.8 °F32.0 °F93 %29.71 in4.3 miVariable3.5 mphFogFog
7:50 AM33.8 °F33.8 °F100 %29.71 in4.3 miNNE (30°)3.5 mphFogFog
8:00 AM34.0 °F32.0 °F91 %29.73 in6.0 miNNE (20°)3.5 mphLight Haze
8:20 AM35.6 °F35.6 °F100 %29.74 in4.3 miNNE (20°)3.5 mphFogFog
8:50 AM35.6 °F35.6 °F100 %29.74 in5.0 miVariable2.3 mphFogFog
9:00 AM34.0 °F32.0 °F90 %29.75 in6.0 miNNE (30°)3.5 mphLight Haze
9:20 AM37.4 °F35.6 °F93 %29.74 in5.6 miNorth (360°)3.5 mphFogFog
9:50 AM39.2 °F37.4 °F93 %29.77 in5.6 miVariable2.3 mphFogFog
10:00 AM37.0 °F35.0 °F87 %29.77 in7.0 miNNE (20°)2.3 mph
10:20 AM39.2 °F35.6 °F87 %29.77 in5.6 miENE (60°)3.5 mphPartly Cloudy
10:50 AM42.8 °F39.2 °F87 %29.77 in5.6 miVariable2.3 mphPartly Cloudy
11:00 AM39.0 °F36.0 °F85 %29.78 in6.0 miNNE (30°)2.3 mph
11:20 AM44.6 °F39.2 °F81 %29.77 in5.6 miNW (320°)3.5 mphPartly Cloudy
11:50 AM44.6 °F39.2 °F81 %29.77 in5.6 miWNW (300°)3.5 mphPartly Cloudy
12:00 PM43.0 °F38.0 °F77 %29.78 in6.0 miNNW (330°)3.5 mphLight Haze
12:20 PM44.6 °F41.0 °F87 %29.77 in6.2 miVariable2.3 mphPartly Cloudy
12:50 PM44.6 °F41.0 °F87 %29.77 in6.2 miWNW (300°)3.5 mphPartly Cloudy
1:00 PM45.0 °F40.0 °F75 %29.78 in9.0 miWNW (300°)3.5 mph
1:20 PM46.4 °F41.0 °F81 %29.77 in6.2 miWNW (290°)4.6 mphScattered Clouds
1:50 PM46.4 °F41.0 °F81 %29.77 in6.2 miVariable2.3 mphScattered Clouds
2:00 PM46.0 °F40.0 °F72 %29.79 in11.0 miWNW (300°)1.2 mphMostly Cloudy
2:20 PM48.2 °F41.0 °F76 %29.80 in6.2 miVariable2.3 mphScattered Clouds
2:50 PM50.0 °F41.0 °F71 %29.80 in6.2 miVariable3.5 mphPartly Cloudy
3:00 PM48.0 °F38.0 °F60 %29.80 in13.0 miNW (320°)2.3 mphScattered Clouds
3:20 PM48.2 °F39.2 °F71 %29.80 in6.2 miVariable2.3 mphPartly Cloudy
3:50 PM48.2 °F39.2 °F71 %29.80 in6.2 miVariable2.3 mphPartly Cloudy
4:00 PM47.0 °F40.0 °F67 %29.82 in11.0 miNE (40°)3.5 mphPartly Cloudy
4:20 PM46.4 °F39.2 °F76 %29.83 in6.2 miVariable2.3 mphPartly Cloudy
4:50 PM44.6 °F39.2 °F81 %29.83 inCalmClear
5:00 PM46.0 °F39.0 °F69 %29.83 in12.0 miNE (50°)2.3 mphMostly Cloudy
5:20 PM44.6 °F39.2 °F81 %29.83 in6.2 miCalmPartly Cloudy
5:50 PM44.6 °F39.2 °F81 %29.83 in6.2 miCalmPartly Cloudy
6:00 PM45.0 °F39.0 °F74 %29.85 in11.0 miNNE (20°)1.2 mphMostly Cloudy
6:20 PM44.6 °F39.2 °F81 %29.86 in6.2 miCalmPartly Cloudy
6:50 PM44.6 °F39.2 °F81 %29.86 in6.2 miVariable2.3 mphPartly Cloudy
7:00 PM44.0 °F39.0 °F77 %29.86 in12.0 miNNE (20°)1.2 mphMostly Cloudy
7:20 PM44.6 °F39.2 °F81 %29.86 in6.2 miCalmPartly Cloudy
7:50 PM44.6 °F39.2 °F81 %29.86 inNNW (330°)2.3 mphClear
8:00 PM44.0 °F40.0 °F79 %29.87 in9.0 miNW (310°)3.5 mphOvercast
8:20 PM44.6 °F41.0 °F87 %29.86 in6.2 miNorth (350°)3.5 mphMostly Cloudy
8:50 PM46.4 °F41.0 °F81 %29.86 in6.2 miVariable2.3 mphMostly Cloudy
9:00 PM43.0 °F40.0 °F84 %29.88 in8.0 miNE (40°)1.2 mphOvercast
9:20 PM46.4 °F41.0 °F81 %29.89 in6.2 miCalmPartly Cloudy
9:50 PM44.6 °F39.2 °F81 %29.89 in6.2 miCalmPartly Cloudy
10:00 PM42.0 °F39.0 °F86 %29.88 in6.0 miNorth2.3 mphLight Haze
10:20 PM42.8 °F39.2 °F87 %29.89 in5.6 miCalm
10:50 PM41.0 °F37.4 °F87 %29.89 in5.0 miVariable2.3 mph
11:00 PM40.0 °F38.0 °F88 %29.88 in4.0 miNW (320°)3.5 mphLight Haze
11:20 PM39.2 °F37.4 °F93 %29.89 in4.3 miNNW (330°)2.3 mph
11:50 PM39.2 °F37.4 °F93 %29.89 in4.3 miNorth (350°)2.3 mph
Hourly data recorded from EGLL, located miles away from Slough, England







STORIES FROM OUR PARTNERS